Grant County, OR

5:33 PM PDT on October 23, 2017 (GMT -0700)
Grant County Regional

Weather History for KGCD - May, 2014

Change the Weather History Date:

Saturday, May 10, 2014

  Actual Average (KBNO) Record (KBNO)
Temperature  
Mean Temperature 42 °F -  
Max Temperature 48 °F 61 °F 84 °F (1940)
Min Temperature 35 °F 31 °F 21 °F (1999)
Degree Days  
Heating Degree Days 24    
Moisture  
Dew Point 35 °F    
Average Humidity 81    
Maximum Humidity 93    
Minimum Humidity 62    
Precipitation  
Precipitation 0.01 in - - ()
Sea Level Pressure  
Sea Level Pressure 30.06 in    
Wind  
Wind Speed 7 mph (WSW)    
Max Wind Speed 22 mph    
Max Gust Speed 28 mph    
Visibility 10 miles    
Events Rain , Snow , Thunderstorm    
Averages and records for this station are not official NWS values.
T = Trace of Precipitation, MM = Missing Value Source: NWS Daily Summary

Daily Weather History Graph

Daily Weather History Graph

Search for Another Location

Airport or City:

Trip Planner

Search our weather history database for the weather conditions in past years. The results will help you decide how hot, cold, wet, or windy it might be!

Date:

Astronomy

May. 10, 2014 Rise Set
Actual Time 5:34 AM PDT 8:10 PM PDT
Civil Twilight 5:01 AM PDT 8:44 PM PDT
Nautical Twilight 4:19 AM PDT 9:25 PM PDT
Astronomical Twilight 3:32 AM PDT 10:13 PM PDT
Moon 4:02 PM PDT (5/10) 3:20 AM PDT (5/10)
Length of Visible Light 15h 42m
Length of Day
14h 36m
Waxing Gibbous, 83% of the Moon is Illuminated
May 10
Waxing Gibbous
May 14
Full
May 21
Last Quarter
May 28
New
Jun 5
First Quarter

Hourly Weather History & Observations

Time (PDT) Temp. Windchill Dew Point Humidity Pressure Visibility Wind Dir Wind Speed Gust Speed Precip Events Conditions
12:15 AM 42.8 °F 38.6 °F 35.6 °F 76% 29.99 in 10.0 mi WSW 6.9 mph - N/A Rain Light Rain
12:37 AM 42.8 °F 38.0 °F 35.6 °F 76% 29.99 in 10.0 mi WSW 8.1 mph - N/A Rain Light Rain
1:15 AM 39.2 °F 35.9 °F 35.6 °F 87% 29.99 in 10.0 mi SW 4.6 mph - N/A   Mostly Cloudy
1:55 AM 39.2 °F 33.6 °F 33.8 °F 81% 30.00 in 10.0 mi West 8.1 mph - N/A   Overcast
2:15 AM 39.2 °F 35.0 °F 33.8 °F 81% 30.00 in 10.0 mi WSW 5.8 mph - N/A   Overcast
2:37 AM 39.2 °F 34.2 °F 33.8 °F 81% 30.00 in 10.0 mi WSW 6.9 mph - N/A   Overcast
2:55 AM 39.2 °F 35.0 °F 33.8 °F 81% 29.99 in 10.0 mi SW 5.8 mph - N/A   Overcast
3:15 AM 37.4 °F 33.8 °F 32.0 °F 81% 29.99 in 10.0 mi SW 4.6 mph - N/A   Scattered Clouds
3:55 AM 37.4 °F 33.8 °F 32.0 °F 81% 30.00 in 10.0 mi SSW 4.6 mph - N/A   Clear
4:35 AM 39.2 °F - 32.0 °F 75% 29.99 in 10.0 mi Calm Calm - N/A   Overcast
4:55 AM 37.4 °F 33.8 °F 33.8 °F 87% 30.00 in 10.0 mi West 4.6 mph - N/A   Overcast
5:35 AM 35.6 °F 29.9 °F 33.8 °F 93% 30.01 in 7.0 mi WSW 6.9 mph - N/A Snow Light Snow
5:55 AM 35.6 °F 30.7 °F 33.8 °F 93% 30.01 in 10.0 mi SW 5.8 mph - N/A   Overcast
6:17 AM 37.4 °F - 33.8 °F 87% 30.01 in 10.0 mi Calm Calm - N/A   Overcast
6:35 AM 37.4 °F 34.9 °F 33.8 °F 87% 30.02 in 10.0 mi WSW 3.5 mph - N/A   Overcast
6:55 AM 37.4 °F 34.9 °F 33.8 °F 87% 30.02 in 5.0 mi SW 3.5 mph - N/A Snow Light Snow
7:17 AM 37.4 °F 33.8 °F 33.8 °F 87% 30.02 in 10.0 mi South 4.6 mph - N/A   Mostly Cloudy
7:35 AM 37.4 °F 33.8 °F 33.8 °F 87% 30.02 in 10.0 mi WSW 4.6 mph - N/A   Mostly Cloudy
7:55 AM 37.4 °F 32.8 °F 33.8 °F 87% 30.03 in 10.0 mi West 5.8 mph - N/A   Mostly Cloudy
8:15 AM 39.2 °F 35.0 °F 33.8 °F 81% 30.03 in 10.0 mi SW 5.8 mph - N/A   Mostly Cloudy
8:35 AM 39.2 °F 33.6 °F 35.6 °F 87% 30.03 in 10.0 mi WSW 8.1 mph - N/A   Overcast
8:55 AM 39.2 °F 33.6 °F 35.6 °F 87% 30.03 in 10.0 mi West 8.1 mph - N/A   Overcast
9:35 AM 42.8 °F 36.6 °F 33.8 °F 70% 30.01 in 10.0 mi West 11.5 mph 17.3 mph N/A   Scattered Clouds
10:15 AM 42.8 °F 34.3 °F 33.8 °F 70% 30.01 in 10.0 mi WNW 19.6 mph 27.6 mph N/A   Overcast
10:35 AM 42.8 °F 34.8 °F 35.6 °F 76% 30.02 in 10.0 mi West 17.3 mph 23.0 mph N/A   Mostly Cloudy
10:57 AM 39.2 °F 29.0 °F 35.6 °F 87% 30.03 in 7.0 mi West 21.9 mph 27.6 mph N/A Rain Rain
11:15 AM 37.4 °F 27.8 °F 35.6 °F 93% 30.04 in 7.0 mi West 17.3 mph - N/A Snow Light Snow
11:35 AM 39.2 °F 31.6 °F 35.6 °F 87% 30.05 in 10.0 mi West 12.7 mph 17.3 mph N/A   Overcast
12:15 PM 41.0 °F 33.9 °F 35.6 °F 81% 30.05 in 10.0 mi West 12.7 mph - N/A   Overcast
12:35 PM 42.8 °F 37.5 °F 35.6 °F 76% 30.04 in 10.0 mi WSW 9.2 mph - N/A   Scattered Clouds
12:57 PM 42.8 °F 36.2 °F 35.6 °F 76% 30.05 in 7.0 mi West 12.7 mph - N/A   Mostly Cloudy
1:15 PM 41.0 °F 35.8 °F 35.6 °F 81% 30.05 in 10.0 mi WSW 8.1 mph - N/A Thunderstorm Mostly Cloudy
1:58 PM 37.4 °F - 35.6 °F 93% 30.07 in 10.0 mi Calm Calm - N/A   Mostly Cloudy
2:15 PM 41.0 °F 39.0 °F 35.6 °F 81% 30.07 in 10.0 mi South 3.5 mph - N/A   Scattered Clouds
2:37 PM 42.8 °F - 35.6 °F 76% 30.07 in 10.0 mi Calm Calm - N/A   Mostly Cloudy
2:56 PM 39.2 °F 35.9 °F 35.6 °F 87% 30.08 in 7.0 mi West 4.6 mph - 0.01 in   Overcast
3:15 PM 42.8 °F 39.3 °F 37.4 °F 81% 30.09 in 10.0 mi SW 5.8 mph - N/A   Scattered Clouds
3:57 PM 44.6 °F 42.2 °F 35.6 °F 71% 30.08 in 10.0 mi WSW 4.6 mph - N/A   Scattered Clouds
4:15 PM 46.4 °F 45.2 °F 37.4 °F 71% 30.08 in 10.0 mi NW 3.5 mph - N/A   Scattered Clouds
4:35 PM 48.2 °F - 37.4 °F 66% 30.08 in 10.0 mi WNW 8.1 mph - N/A   Mostly Cloudy
4:55 PM 48.2 °F - 37.4 °F 66% 30.09 in 10.0 mi WSW 9.2 mph - N/A   Mostly Cloudy
5:17 PM 48.2 °F - 35.6 °F 62% 30.09 in 10.0 mi West 5.8 mph - N/A   Mostly Cloudy
5:37 PM 46.4 °F 39.2 °F 37.4 °F 71% 30.10 in 10.0 mi WNW 18.4 mph 21.9 mph N/A   Mostly Cloudy
5:56 PM 46.4 °F 41.9 °F 35.6 °F 66% 30.10 in 10.0 mi WSW 9.2 mph - N/A   Scattered Clouds
6:16 PM 46.4 °F 40.7 °F 37.4 °F 71% 30.10 in 10.0 mi WSW 12.7 mph - N/A   Mostly Cloudy
6:55 PM 46.4 °F 42.9 °F 37.4 °F 71% 30.11 in 10.0 mi West 6.9 mph - N/A Rain Light Rain
7:36 PM 42.8 °F 37.0 °F 35.6 °F 76% 30.13 in 10.0 mi West 10.4 mph - N/A   Scattered Clouds
7:55 PM 42.8 °F 37.0 °F 37.4 °F 81% 30.13 in 10.0 mi WSW 10.4 mph - N/A   Mostly Cloudy
8:36 PM 41.0 °F 39.0 °F 35.6 °F 81% 30.14 in 10.0 mi SSW 3.5 mph - N/A   Clear
9:35 PM 41.0 °F - 35.6 °F 81% 30.16 in 10.0 mi Calm Calm - N/A   Clear
9:55 PM 41.0 °F - 35.6 °F 81% 30.16 in 10.0 mi Calm Calm - N/A   Clear
10:16 PM 39.2 °F - 35.6 °F 87% 30.16 in 10.0 mi Calm Calm - N/A   Clear
10:57 PM 37.4 °F - 33.8 °F 87% 30.16 in 10.0 mi Calm Calm - N/A   Clear
11:36 PM 37.4 °F - 33.8 °F 87% 30.18 in 10.0 mi Calm Calm - N/A   Clear
11:55 PM 37.4 °F - 35.6 °F 93% 30.19 in 10.0 mi Calm Calm - N/A   Scattered Clouds